Zurück zum Katalog

STARLINK-30094

AktivKommunikationVLEO
NORAD 56305·PAYLOAD·🇺🇸 United States

Gestartet Apr 19, 2023 von Cape Canaveral Space Force Station

Loading…

Nächste Überflüge (nächste 24 Stunden)

TLE

AktuellSource: CelesTrak SupGP

Epoche: Sep 15, 2026, 03:06 UTC

1 56305C 23056V   26258.12965278 -.00044828  00000+0 -16240-2 0  2588
2 56305  42.9998 218.8406 0000817 267.0935  99.0025 15.27595243    18

Verfolge STARLINK-30094 in Echtzeit mit AllMySat

Download on the App Store